owner,sensor,date,latitude,longitude,vertical_datum,sea_water_practical_salinity,qcFlag 
SCCF RECON,ioos:station:SCCF:11:1,2016-08-01T00:00:00Z,26.4679,-82.0631,1.9,26.26,1111122 
SCCF RECON,ioos:station:SCCF:11:1,2016-08-01T01:00:00Z,26.4679,-82.0631,1.831,26.84,1111122 
SCCF RECON,ioos:station:SCCF:11:1,2016-08-01T02:00:00Z,26.4679,-82.0631,1.8,25.24,1111122 
SCCF RECON,ioos:station:SCCF:11:1,2016-08-01T03:00:00Z,26.4679,-82.0631,1.81,26.05,1111122 
SCCF RECON,ioos:station:SCCF:11:1,2016-08-01T04:00:00Z,26.4679,-82.0631,1.82,25.26,1111122 
SCCF RECON,ioos:station:SCCF:11:1,2016-08-01T05:00:00Z,26.4679,-82.0631,1.84,24.88,1111122 
SCCF RECON,ioos:station:SCCF:11:1,2016-08-01T06:00:00Z,26.4679,-82.0631,1.878,26.27,1111122 
SCCF RECON,ioos:station:SCCF:11:1,2016-08-01T07:00:00Z,26.4679,-82.0631,1.9,25.58,1111122 
SCCF RECON,ioos:station:SCCF:11:1,2016-08-01T08:00:00Z,26.4679,-82.0631,1.903,25.6,1111122 
SCCF RECON,ioos:station:SCCF:11:1,2016-08-01T09:00:00Z,26.4679,-82.0631,1.9,25.84,1111122 
SCCF RECON,ioos:station:SCCF:11:1,2016-08-01T10:00:00Z,26.4679,-82.0631,1.89,25.96,1111122 
SCCF RECON,ioos:station:SCCF:11:1,2016-08-01T11:00:00Z,26.4679,-82.0631,1.88,25.87,1111122 
SCCF RECON,ioos:station:SCCF:11:1,2016-08-01T12:00:00Z,26.4679,-82.0631,1.87,25.87,1111122 
SCCF RECON,ioos:station:SCCF:11:1,2016-08-01T13:00:00Z,26.4679,-82.0631,1.86,26.86,1111122 
SCCF RECON,ioos:station:SCCF:11:1,2016-08-01T14:00:00Z,26.4679,-82.0631,1.88,25.15,1111122 
SCCF RECON,ioos:station:SCCF:11:1,2016-08-01T15:00:00Z,26.4679,-82.0631,1.93,26.71,1111122 
SCCF RECON,ioos:station:SCCF:11:1,2016-08-01T16:00:00Z,26.4679,-82.0631,1.99,27.49,1111122 
SCCF RECON,ioos:station:SCCF:11:1,2016-08-01T17:00:00Z,26.4679,-82.0631,2.04,28.67,1111122 
SCCF RECON,ioos:station:SCCF:11:1,2016-08-01T18:00:00Z,26.4679,-82.0631,2.08,27.2,1111122 
SCCF RECON,ioos:station:SCCF:11:1,2016-08-01T19:00:00Z,26.4679,-82.0631,2.141,26.17,1111122 
SCCF RECON,ioos:station:SCCF:11:1,2016-08-01T20:00:00Z,26.4679,-82.0631,2.16,26.06,1111122 
SCCF RECON,ioos:station:SCCF:11:1,2016-08-01T21:00:00Z,26.4679,-82.0631,2.14,26.03,1111122 
SCCF RECON,ioos:station:SCCF:11:1,2016-08-01T22:00:00Z,26.4679,-82.0631,2.08,26.0,1111122 
SCCF RECON,ioos:station:SCCF:11:1,2016-08-01T23:00:00Z,26.4679,-82.0631,2.0,25.82,1111122 
SCCF RECON,ioos:station:SCCF:11:1,2016-08-02T00:00:00Z,26.4679,-82.0631,1.92,25.83,1111122 
SCCF RECON,ioos:station:SCCF:11:1,2016-08-02T01:00:00Z,26.4679,-82.0631,1.87,26.1,1111122 
SCCF RECON,ioos:station:SCCF:11:1,2016-08-02T02:00:00Z,26.4679,-82.0631,1.84,26.59,1111122 
SCCF RECON,ioos:station:SCCF:11:1,2016-08-02T03:00:00Z,26.4679,-82.0631,1.809,21.72,1111122 
SCCF RECON,ioos:station:SCCF:11:1,2016-08-02T04:00:00Z,26.4679,-82.0631,1.81,23.81,1111122 
SCCF RECON,ioos:station:SCCF:11:1,2016-08-02T05:00:00Z,26.4679,-82.0631,1.83,23.93,1111122 
SCCF RECON,ioos:station:SCCF:11:1,2016-08-02T06:00:00Z,26.4679,-82.0631,1.87,24.35,1111122 
SCCF RECON,ioos:station:SCCF:11:1,2016-08-02T07:00:00Z,26.4679,-82.0631,1.9,24.24,1111122 
SCCF RECON,ioos:station:SCCF:11:1,2016-08-02T08:00:00Z,26.4679,-82.0631,1.89,24.14,1111122 
SCCF RECON,ioos:station:SCCF:11:1,2016-08-02T09:00:00Z,26.4679,-82.0631,1.88,24.34,1111122 
SCCF RECON,ioos:station:SCCF:11:1,2016-08-02T10:00:00Z,26.4679,-82.0631,1.873,24.85,1111122 
SCCF RECON,ioos:station:SCCF:11:1,2016-08-02T11:00:00Z,26.4679,-82.0631,1.87,24.9,1111122 
SCCF RECON,ioos:station:SCCF:11:1,2016-08-02T12:00:00Z,26.4679,-82.0631,1.85,24.71,1111122 
SCCF RECON,ioos:station:SCCF:11:1,2016-08-02T13:00:00Z,26.4679,-82.0631,1.85,24.89,1111122 
SCCF RECON,ioos:station:SCCF:11:1,2016-08-02T14:00:00Z,26.4679,-82.0631,1.88,25.43,1111122 
SCCF RECON,ioos:station:SCCF:11:1,2016-08-02T15:00:00Z,26.4679,-82.0631,1.92,25.68,1111122 
SCCF RECON,ioos:station:SCCF:11:1,2016-08-02T16:00:00Z,26.4679,-82.0631,1.98,27.11,1111122 
SCCF RECON,ioos:station:SCCF:11:1,2016-08-02T17:00:00Z,26.4679,-82.0631,2.03,28.1,1111122 
SCCF RECON,ioos:station:SCCF:11:1,2016-08-02T18:00:00Z,26.4679,-82.0631,2.07,29.63,1111122 
SCCF RECON,ioos:station:SCCF:11:1,2016-08-02T19:00:00Z,26.4679,-82.0631,2.12,26.32,1111122 
SCCF RECON,ioos:station:SCCF:11:1,2016-08-02T20:00:00Z,26.4679,-82.0631,2.2,25.21,1111122 
SCCF RECON,ioos:station:SCCF:11:1,2016-08-02T21:00:00Z,26.4679,-82.0631,2.153,25.43,1111122 
SCCF RECON,ioos:station:SCCF:11:1,2016-08-02T22:00:00Z,26.4679,-82.0631,2.08,25.43,1111122 
SCCF RECON,ioos:station:SCCF:11:1,2016-08-02T23:00:00Z,26.4679,-82.0631,2.02,25.6,1111122 
SCCF RECON,ioos:station:SCCF:11:1,2016-08-03T00:00:00Z,26.4679,-82.0631,1.953,25.65,1111122 
SCCF RECON,ioos:station:SCCF:11:1,2016-08-03T01:00:00Z,26.4679,-82.0631,1.89,25.67,1111122 
SCCF RECON,ioos:station:SCCF:11:1,2016-08-03T02:00:00Z,26.4679,-82.0631,1.83,25.62,1111122 
SCCF RECON,ioos:station:SCCF:11:1,2016-08-03T03:00:00Z,26.4679,-82.0631,1.818,25.78,1111122 
SCCF RECON,ioos:station:SCCF:11:1,2016-08-03T04:00:00Z,26.4679,-82.0631,1.79,24.69,1111122 
SCCF RECON,ioos:station:SCCF:11:1,2016-08-03T05:00:00Z,26.4679,-82.0631,1.804,24.95,1111122 
SCCF RECON,ioos:station:SCCF:11:1,2016-08-03T06:00:00Z,26.4679,-82.0631,1.84,25.03,1111122 
SCCF RECON,ioos:station:SCCF:11:1,2016-08-03T07:00:00Z,26.4679,-82.0631,1.88,27.3,1111122 
SCCF RECON,ioos:station:SCCF:11:1,2016-08-03T08:00:00Z,26.4679,-82.0631,1.9,27.27,1111122 
SCCF RECON,ioos:station:SCCF:11:1,2016-08-03T09:00:00Z,26.4679,-82.0631,1.9,25.32,1111122 
SCCF RECON,ioos:station:SCCF:11:1,2016-08-03T10:00:00Z,26.4679,-82.0631,1.89,25.16,1111122 
SCCF RECON,ioos:station:SCCF:11:1,2016-08-03T11:00:00Z,26.4679,-82.0631,1.877,25.18,1111122 
SCCF RECON,ioos:station:SCCF:11:1,2016-08-03T12:00:00Z,26.4679,-82.0631,1.87,26.52,1111122 
SCCF RECON,ioos:station:SCCF:11:1,2016-08-03T13:00:00Z,26.4679,-82.0631,1.88,26.65,1111122 
SCCF RECON,ioos:station:SCCF:11:1,2016-08-03T14:00:00Z,26.4679,-82.0631,1.895,26.78,1111122 
SCCF RECON,ioos:station:SCCF:11:1,2016-08-03T15:00:00Z,26.4679,-82.0631,1.94,27.91,1111122 
SCCF RECON,ioos:station:SCCF:11:1,2016-08-03T16:00:00Z,26.4679,-82.0631,1.97,28.62,1111122 
SCCF RECON,ioos:station:SCCF:11:1,2016-08-03T17:00:00Z,26.4679,-82.0631,2.02,28.87,1111122 
SCCF RECON,ioos:station:SCCF:11:1,2016-08-03T18:00:00Z,26.4679,-82.0631,2.06,28.95,1111122 
SCCF RECON,ioos:station:SCCF:11:1,2016-08-03T19:00:00Z,26.4679,-82.0631,2.08,30.35,1111122 
SCCF RECON,ioos:station:SCCF:11:1,2016-08-03T20:00:00Z,26.4679,-82.0631,2.12,26.22,1111122 
SCCF RECON,ioos:station:SCCF:11:1,2016-08-03T21:00:00Z,26.4679,-82.0631,2.14,26.12,1111122 
SCCF RECON,ioos:station:SCCF:11:1,2016-08-03T22:00:00Z,26.4679,-82.0631,2.13,26.14,1111122 
SCCF RECON,ioos:station:SCCF:11:1,2016-08-03T23:00:00Z,26.4679,-82.0631,2.11,25.99,1111122 
SCCF RECON,ioos:station:SCCF:11:1,2016-08-04T00:00:00Z,26.4679,-82.0631,2.049,26.06,1111122 
SCCF RECON,ioos:station:SCCF:11:1,2016-08-04T01:00:00Z,26.4679,-82.0631,1.98,25.92,1111122 
SCCF RECON,ioos:station:SCCF:11:1,2016-08-04T02:00:00Z,26.4679,-82.0631,1.922,25.77,1111122 
SCCF RECON,ioos:station:SCCF:11:1,2016-08-04T03:00:00Z,26.4679,-82.0631,1.88,27.19,1111122 
SCCF RECON,ioos:station:SCCF:11:1,2016-08-04T04:00:00Z,26.4679,-82.0631,1.861,25.96,1111122 
SCCF RECON,ioos:station:SCCF:11:1,2016-08-04T05:00:00Z,26.4679,-82.0631,1.85,25.49,1111122 
SCCF RECON,ioos:station:SCCF:11:1,2016-08-04T06:00:00Z,26.4679,-82.0631,1.87,25.79,1111122 
SCCF RECON,ioos:station:SCCF:11:1,2016-08-04T07:00:00Z,26.4679,-82.0631,1.89,26.22,1111122 
SCCF RECON,ioos:station:SCCF:11:1,2016-08-04T08:00:00Z,26.4679,-82.0631,1.92,26.87,1111122 
SCCF RECON,ioos:station:SCCF:11:1,2016-08-04T09:00:00Z,26.4679,-82.0631,1.92,26.02,1111122 
SCCF RECON,ioos:station:SCCF:11:1,2016-08-04T10:00:00Z,26.4679,-82.0631,1.919,25.85,1111122 
SCCF RECON,ioos:station:SCCF:11:1,2016-08-04T11:00:00Z,26.4679,-82.0631,1.91,25.84,1111122 
SCCF RECON,ioos:station:SCCF:11:1,2016-08-04T12:00:00Z,26.4679,-82.0631,1.9,25.68,1111122 
SCCF RECON,ioos:station:SCCF:11:1,2016-08-04T13:00:00Z,26.4679,-82.0631,1.88,25.67,1111122 
SCCF RECON,ioos:station:SCCF:11:1,2016-08-04T14:00:00Z,26.4679,-82.0631,1.88,25.77,1111122 
SCCF RECON,ioos:station:SCCF:11:1,2016-08-04T15:00:00Z,26.4679,-82.0631,1.91,27.39,1111122 
SCCF RECON,ioos:station:SCCF:11:1,2016-08-04T16:00:00Z,26.4679,-82.0631,1.95,27.29,1111122 
SCCF RECON,ioos:station:SCCF:11:1,2016-08-04T17:00:00Z,26.4679,-82.0631,1.98,27.66,1111122 
SCCF RECON,ioos:station:SCCF:11:1,2016-08-04T18:00:00Z,26.4679,-82.0631,2.02,28.62,1111122 
SCCF RECON,ioos:station:SCCF:11:1,2016-08-04T19:00:00Z,26.4679,-82.0631,2.057,28.71,1111122 
SCCF RECON,ioos:station:SCCF:11:1,2016-08-04T20:00:00Z,26.4679,-82.0631,2.089,30.35,1111122 
SCCF RECON,ioos:station:SCCF:11:1,2016-08-04T21:00:00Z,26.4679,-82.0631,2.17,26.1,1111122 
SCCF RECON,ioos:station:SCCF:11:1,2016-08-04T22:00:00Z,26.4679,-82.0631,2.17,26.13,1111122 
SCCF RECON,ioos:station:SCCF:11:1,2016-08-04T23:00:00Z,26.4679,-82.0631,2.15,26.12,1111122 
SCCF RECON,ioos:station:SCCF:11:1,2016-08-05T00:00:00Z,26.4679,-82.0631,2.111,25.9,1111122 
SCCF RECON,ioos:station:SCCF:11:1,2016-08-05T01:00:00Z,26.4679,-82.0631,2.06,25.91,1111122 
SCCF RECON,ioos:station:SCCF:11:1,2016-08-05T02:00:00Z,26.4679,-82.0631,2.0,25.96,1111122 
SCCF RECON,ioos:station:SCCF:11:1,2016-08-05T03:00:00Z,26.4679,-82.0631,1.947,26.1,1111122 
SCCF RECON,ioos:station:SCCF:11:1,2016-08-05T04:00:00Z,26.4679,-82.0631,1.891,27.77,1111122 
SCCF RECON,ioos:station:SCCF:11:1,2016-08-05T05:00:00Z,26.4679,-82.0631,1.88,25.61,1111122 
SCCF RECON,ioos:station:SCCF:11:1,2016-08-05T06:00:00Z,26.4679,-82.0631,1.89,26.25,1111122 
SCCF RECON,ioos:station:SCCF:11:1,2016-08-05T07:00:00Z,26.4679,-82.0631,1.92,27.29,1111122 
SCCF RECON,ioos:station:SCCF:11:1,2016-08-05T08:00:00Z,26.4679,-82.0631,1.94,27.57,1111122 
SCCF RECON,ioos:station:SCCF:11:1,2016-08-05T09:00:00Z,26.4679,-82.0631,1.967,29.2,1111122 
SCCF RECON,ioos:station:SCCF:11:1,2016-08-05T10:00:00Z,26.4679,-82.0631,1.95,26.44,1111122 
SCCF RECON,ioos:station:SCCF:11:1,2016-08-05T11:00:00Z,26.4679,-82.0631,1.94,26.27,1111122 
SCCF RECON,ioos:station:SCCF:11:1,2016-08-05T12:00:00Z,26.4679,-82.0631,1.93,26.17,1111122 
SCCF RECON,ioos:station:SCCF:11:1,2016-08-05T13:00:00Z,26.4679,-82.0631,1.93,26.19,1111122 
SCCF RECON,ioos:station:SCCF:11:1,2016-08-05T14:00:00Z,26.4679,-82.0631,1.92,26.27,1111122 
SCCF RECON,ioos:station:SCCF:11:1,2016-08-05T15:00:00Z,26.4679,-82.0631,1.93,27.02,1111122 
SCCF RECON,ioos:station:SCCF:11:1,2016-08-05T16:00:00Z,26.4679,-82.0631,1.96,28.79,1111122 
SCCF RECON,ioos:station:SCCF:11:1,2016-08-05T17:00:00Z,26.4679,-82.0631,1.98,28.19,1111122 
SCCF RECON,ioos:station:SCCF:11:1,2016-08-05T18:00:00Z,26.4679,-82.0631,2.011,28.86,1111122 
SCCF RECON,ioos:station:SCCF:11:1,2016-08-05T19:00:00Z,26.4679,-82.0631,2.058,29.02,1111122 
SCCF RECON,ioos:station:SCCF:11:1,2016-08-05T20:00:00Z,26.4679,-82.0631,2.069,30.03,1111122 
SCCF RECON,ioos:station:SCCF:11:1,2016-08-05T21:00:00Z,26.4679,-82.0631,2.099,27.93,1111122 
SCCF RECON,ioos:station:SCCF:11:1,2016-08-05T22:00:00Z,26.4679,-82.0631,2.14,27.11,1111122 
SCCF RECON,ioos:station:SCCF:11:1,2016-08-05T23:00:00Z,26.4679,-82.0631,2.13,26.97,1111122 
SCCF RECON,ioos:station:SCCF:11:1,2016-08-06T00:00:00Z,26.4679,-82.0631,2.092,26.8,1111122 
SCCF RECON,ioos:station:SCCF:11:1,2016-08-06T01:00:00Z,26.4679,-82.0631,2.05,26.63,1111122 
SCCF RECON,ioos:station:SCCF:11:1,2016-08-06T02:00:00Z,26.4679,-82.0631,1.99,26.54,1111122 
SCCF RECON,ioos:station:SCCF:11:1,2016-08-06T03:00:00Z,26.4679,-82.0631,1.94,26.79,1111122 
SCCF RECON,ioos:station:SCCF:11:1,2016-08-06T04:00:00Z,26.4679,-82.0631,1.9,27.26,1111122 
SCCF RECON,ioos:station:SCCF:11:1,2016-08-06T05:00:00Z,26.4679,-82.0631,1.88,28.86,1111122 
SCCF RECON,ioos:station:SCCF:11:1,2016-08-06T06:00:00Z,26.4679,-82.0631,1.88,26.45,1111122 
SCCF RECON,ioos:station:SCCF:11:1,2016-08-06T07:00:00Z,26.4679,-82.0631,1.89,26.6,1111122 
SCCF RECON,ioos:station:SCCF:11:1,2016-08-06T08:00:00Z,26.4679,-82.0631,1.91,27.02,1111122 
SCCF RECON,ioos:station:SCCF:11:1,2016-08-06T09:00:00Z,26.4679,-82.0631,1.92,26.85,1111122 
SCCF RECON,ioos:station:SCCF:11:1,2016-08-06T10:00:00Z,26.4679,-82.0631,1.93,26.91,1111122 
SCCF RECON,ioos:station:SCCF:11:1,2016-08-06T11:00:00Z,26.4679,-82.0631,1.921,26.87,1111122 
SCCF RECON,ioos:station:SCCF:11:1,2016-08-06T12:00:00Z,26.4679,-82.0631,1.92,26.9,1111122 
SCCF RECON,ioos:station:SCCF:11:1,2016-08-06T13:00:00Z,26.4679,-82.0631,1.91,26.86,1111122 
SCCF RECON,ioos:station:SCCF:11:1,2016-08-06T14:00:00Z,26.4679,-82.0631,1.89,26.87,1111122 
SCCF RECON,ioos:station:SCCF:11:1,2016-08-06T15:00:00Z,26.4679,-82.0631,1.88,26.86,1111122 
SCCF RECON,ioos:station:SCCF:11:1,2016-08-06T16:00:00Z,26.4679,-82.0631,1.89,28.79,1111122 
SCCF RECON,ioos:station:SCCF:11:1,2016-08-06T17:00:00Z,26.4679,-82.0631,1.9,28.26,1111122 
SCCF RECON,ioos:station:SCCF:11:1,2016-08-06T18:00:00Z,26.4679,-82.0631,1.93,28.78,1111122 
SCCF RECON,ioos:station:SCCF:11:1,2016-08-06T19:00:00Z,26.4679,-82.0631,1.95,29.25,1111122 
SCCF RECON,ioos:station:SCCF:11:1,2016-08-06T20:00:00Z,26.4679,-82.0631,1.98,29.94,1111122 
SCCF RECON,ioos:station:SCCF:11:1,2016-08-06T21:00:00Z,26.4679,-82.0631,1.996,30.44,1111122 
SCCF RECON,ioos:station:SCCF:11:1,2016-08-06T22:00:00Z,26.4679,-82.0631,2.02,27.78,1111122 
SCCF RECON,ioos:station:SCCF:11:1,2016-08-06T23:00:00Z,26.4679,-82.0631,2.024,27.48,1111122 
SCCF RECON,ioos:station:SCCF:11:1,2016-08-07T00:00:00Z,26.4679,-82.0631,2.01,27.34,1111122 
SCCF RECON,ioos:station:SCCF:11:1,2016-08-07T01:00:00Z,26.4679,-82.0631,1.98,27.21,1111122 
SCCF RECON,ioos:station:SCCF:11:1,2016-08-07T02:00:00Z,26.4679,-82.0631,1.94,27.12,1111122 
SCCF RECON,ioos:station:SCCF:11:1,2016-08-07T03:00:00Z,26.4679,-82.0631,1.909,27.05,1111122 
SCCF RECON,ioos:station:SCCF:11:1,2016-08-07T04:00:00Z,26.4679,-82.0631,1.871,26.78,1111122 
SCCF RECON,ioos:station:SCCF:11:1,2016-08-07T05:00:00Z,26.4679,-82.0631,1.86,28.54,1111122 
SCCF RECON,ioos:station:SCCF:11:1,2016-08-07T06:00:00Z,26.4679,-82.0631,1.87,27.97,1111122 
SCCF RECON,ioos:station:SCCF:11:1,2016-08-07T07:00:00Z,26.4679,-82.0631,1.87,26.88,1111122 
SCCF RECON,ioos:station:SCCF:11:1,2016-08-07T08:00:00Z,26.4679,-82.0631,1.871,26.56,1111122 
SCCF RECON,ioos:station:SCCF:11:1,2016-08-07T09:00:00Z,26.4679,-82.0631,1.9,26.54,1111122 
SCCF RECON,ioos:station:SCCF:11:1,2016-08-07T10:00:00Z,26.4679,-82.0631,1.94,28.58,1111122 
SCCF RECON,ioos:station:SCCF:11:1,2016-08-07T11:00:00Z,26.4679,-82.0631,1.96,28.67,1111122 
SCCF RECON,ioos:station:SCCF:11:1,2016-08-07T12:00:00Z,26.4679,-82.0631,1.946,27.18,1111122 
SCCF RECON,ioos:station:SCCF:11:1,2016-08-07T13:00:00Z,26.4679,-82.0631,1.92,27.24,1111122 
SCCF RECON,ioos:station:SCCF:11:1,2016-08-07T14:00:00Z,26.4679,-82.0631,1.907,27.21,1111122 
SCCF RECON,ioos:station:SCCF:11:1,2016-08-07T15:00:00Z,26.4679,-82.0631,1.89,27.2,1111122 
SCCF RECON,ioos:station:SCCF:11:1,2016-08-07T16:00:00Z,26.4679,-82.0631,1.89,27.28,1111122 
SCCF RECON,ioos:station:SCCF:11:1,2016-08-07T17:00:00Z,26.4679,-82.0631,1.89,27.28,1111122 
SCCF RECON,ioos:station:SCCF:11:1,2016-08-07T18:00:00Z,26.4679,-82.0631,1.912,29.12,1111122 
SCCF RECON,ioos:station:SCCF:11:1,2016-08-07T19:00:00Z,26.4679,-82.0631,1.93,28.66,1111122 
SCCF RECON,ioos:station:SCCF:11:1,2016-08-07T20:00:00Z,26.4679,-82.0631,1.955,28.57,1111122 
SCCF RECON,ioos:station:SCCF:11:1,2016-08-07T21:00:00Z,26.4679,-82.0631,1.98,27.57,1111122 
SCCF RECON,ioos:station:SCCF:11:1,2016-08-07T22:00:00Z,26.4679,-82.0631,1.99,28.56,1111122 
SCCF RECON,ioos:station:SCCF:11:1,2016-08-07T23:00:00Z,26.4679,-82.0631,2.0,27.89,1111122 
SCCF RECON,ioos:station:SCCF:11:1,2016-08-08T00:00:00Z,26.4679,-82.0631,1.99,27.51,1111122 
SCCF RECON,ioos:station:SCCF:11:1,2016-08-08T01:00:00Z,26.4679,-82.0631,1.965,27.21,1111122 
SCCF RECON,ioos:station:SCCF:11:1,2016-08-08T02:00:00Z,26.4679,-82.0631,1.94,27.07,1111122 
SCCF RECON,ioos:station:SCCF:11:1,2016-08-08T03:00:00Z,26.4679,-82.0631,1.91,27.03,1111122 
SCCF RECON,ioos:station:SCCF:11:1,2016-08-08T04:00:00Z,26.4679,-82.0631,1.871,26.91,1111122 
SCCF RECON,ioos:station:SCCF:11:1,2016-08-08T05:00:00Z,26.4679,-82.0631,1.85,27.52,1111122 
SCCF RECON,ioos:station:SCCF:11:1,2016-08-08T06:00:00Z,26.4679,-82.0631,1.83,27.73,1111122 
SCCF RECON,ioos:station:SCCF:11:1,2016-08-08T07:00:00Z,26.4679,-82.0631,1.841,27.47,1111122 
SCCF RECON,ioos:station:SCCF:11:1,2016-08-08T08:00:00Z,26.4679,-82.0631,1.86,28.05,1111122 
SCCF RECON,ioos:station:SCCF:11:1,2016-08-08T09:00:00Z,26.4679,-82.0631,1.89,28.55,1111122 
SCCF RECON,ioos:station:SCCF:11:1,2016-08-08T10:00:00Z,26.4679,-82.0631,1.92,28.9,1111122 
SCCF RECON,ioos:station:SCCF:11:1,2016-08-08T11:00:00Z,26.4679,-82.0631,1.94,29.19,1111122 
SCCF RECON,ioos:station:SCCF:11:1,2016-08-08T12:00:00Z,26.4679,-82.0631,1.93,27.87,1111122 
SCCF RECON,ioos:station:SCCF:11:1,2016-08-08T13:00:00Z,26.4679,-82.0631,1.93,27.48,1111122 
SCCF RECON,ioos:station:SCCF:11:1,2016-08-08T14:00:00Z,26.4679,-82.0631,1.907,27.26,1111122 
SCCF RECON,ioos:station:SCCF:11:1,2016-08-08T15:00:00Z,26.4679,-82.0631,1.9,27.13,1111122 
SCCF RECON,ioos:station:SCCF:11:1,2016-08-08T16:00:00Z,26.4679,-82.0631,1.877,27.06,1111122 
SCCF RECON,ioos:station:SCCF:11:1,2016-08-08T17:00:00Z,26.4679,-82.0631,1.871,27.39,1111122 
SCCF RECON,ioos:station:SCCF:11:1,2016-08-08T18:00:00Z,26.4679,-82.0631,1.87,27.37,1111122 
SCCF RECON,ioos:station:SCCF:11:1,2016-08-08T19:00:00Z,26.4679,-82.0631,1.87,27.75,1111122 
SCCF RECON,ioos:station:SCCF:11:1,2016-08-08T20:00:00Z,26.4679,-82.0631,1.88,27.52,1111122 
SCCF RECON,ioos:station:SCCF:11:1,2016-08-08T21:00:00Z,26.4679,-82.0631,1.89,28.54,1111122 
SCCF RECON,ioos:station:SCCF:11:1,2016-08-08T22:00:00Z,26.4679,-82.0631,1.91,28.69,1111122 
SCCF RECON,ioos:station:SCCF:11:1,2016-08-08T23:00:00Z,26.4679,-82.0631,1.92,28.28,1111122 
SCCF RECON,ioos:station:SCCF:11:1,2016-08-09T00:00:00Z,26.4679,-82.0631,1.92,27.49,1111122 
SCCF RECON,ioos:station:SCCF:11:1,2016-08-09T01:00:00Z,26.4679,-82.0631,1.9,27.51,1111122 
SCCF RECON,ioos:station:SCCF:11:1,2016-08-09T02:00:00Z,26.4679,-82.0631,1.887,27.22,1111122 
SCCF RECON,ioos:station:SCCF:11:1,2016-08-09T03:00:00Z,26.4679,-82.0631,1.87,27.19,1111122 
SCCF RECON,ioos:station:SCCF:11:1,2016-08-09T04:00:00Z,26.4679,-82.0631,1.859,27.26,1111122 
SCCF RECON,ioos:station:SCCF:11:1,2016-08-09T05:00:00Z,26.4679,-82.0631,1.844,27.33,1111122 
SCCF RECON,ioos:station:SCCF:11:1,2016-08-09T06:00:00Z,26.4679,-82.0631,1.83,25.55,1111122 
SCCF RECON,ioos:station:SCCF:11:1,2016-08-09T07:00:00Z,26.4679,-82.0631,1.839,25.31,1111122 
SCCF RECON,ioos:station:SCCF:11:1,2016-08-09T08:00:00Z,26.4679,-82.0631,1.86,26.96,1111122 
SCCF RECON,ioos:station:SCCF:11:1,2016-08-09T09:00:00Z,26.4679,-82.0631,1.88,26.64,1111122 
SCCF RECON,ioos:station:SCCF:11:1,2016-08-09T10:00:00Z,26.4679,-82.0631,1.92,27.87,1111122 
SCCF RECON,ioos:station:SCCF:11:1,2016-08-09T11:00:00Z,26.4679,-82.0631,1.968,29.31,1111122 
SCCF RECON,ioos:station:SCCF:11:1,2016-08-09T12:00:00Z,26.4679,-82.0631,1.99,29.49,1111122 
SCCF RECON,ioos:station:SCCF:11:1,2016-08-09T13:00:00Z,26.4679,-82.0631,1.951,26.52,1111122 
SCCF RECON,ioos:station:SCCF:11:1,2016-08-09T14:00:00Z,26.4679,-82.0631,1.952,26.85,1111122 
SCCF RECON,ioos:station:SCCF:11:1,2016-08-09T15:00:00Z,26.4679,-82.0631,1.95,26.76,1111122 
SCCF RECON,ioos:station:SCCF:11:1,2016-08-09T16:00:00Z,26.4679,-82.0631,1.944,26.79,1111122 
SCCF RECON,ioos:station:SCCF:11:1,2016-08-09T17:00:00Z,26.4679,-82.0631,1.95,26.64,1111122 
SCCF RECON,ioos:station:SCCF:11:1,2016-08-09T18:00:00Z,26.4679,-82.0631,1.949,27.11,1111122 
SCCF RECON,ioos:station:SCCF:11:1,2016-08-09T19:00:00Z,26.4679,-82.0631,1.97,27.97,1111122 
SCCF RECON,ioos:station:SCCF:11:1,2016-08-09T20:00:00Z,26.4679,-82.0631,1.97,28.59,1111122 
SCCF RECON,ioos:station:SCCF:11:1,2016-08-09T21:00:00Z,26.4679,-82.0631,1.98,28.92,1111122 
SCCF RECON,ioos:station:SCCF:11:1,2016-08-09T22:00:00Z,26.4679,-82.0631,1.98,28.37,1111122 
SCCF RECON,ioos:station:SCCF:11:1,2016-08-09T23:00:00Z,26.4679,-82.0631,1.99,29.03,1111122 
SCCF RECON,ioos:station:SCCF:11:1,2016-08-10T00:00:00Z,26.4679,-82.0631,1.992,28.42,1111122 
SCCF RECON,ioos:station:SCCF:11:1,2016-08-10T01:00:00Z,26.4679,-82.0631,1.99,28.06,1111122 
SCCF RECON,ioos:station:SCCF:11:1,2016-08-10T02:00:00Z,26.4679,-82.0631,1.96,27.1,1111122 
SCCF RECON,ioos:station:SCCF:11:1,2016-08-10T03:00:00Z,26.4679,-82.0631,1.94,27.16,1111122 
SCCF RECON,ioos:station:SCCF:11:1,2016-08-10T04:00:00Z,26.4679,-82.0631,1.921,27.33,1111122 
SCCF RECON,ioos:station:SCCF:11:1,2016-08-10T05:00:00Z,26.4679,-82.0631,1.907,27.47,1111122 
SCCF RECON,ioos:station:SCCF:11:1,2016-08-10T06:00:00Z,26.4679,-82.0631,1.89,27.69,1111122 
SCCF RECON,ioos:station:SCCF:11:1,2016-08-10T07:00:00Z,26.4679,-82.0631,1.865,26.1,1111122 
SCCF RECON,ioos:station:SCCF:11:1,2016-08-10T08:00:00Z,26.4679,-82.0631,1.88,26.65,1111122 
SCCF RECON,ioos:station:SCCF:11:1,2016-08-10T09:00:00Z,26.4679,-82.0631,1.879,26.47,1111122 
SCCF RECON,ioos:station:SCCF:11:1,2016-08-10T10:00:00Z,26.4679,-82.0631,1.9,27.56,1111122 
SCCF RECON,ioos:station:SCCF:11:1,2016-08-10T11:00:00Z,26.4679,-82.0631,1.921,27.89,1111122 
SCCF RECON,ioos:station:SCCF:11:1,2016-08-10T12:00:00Z,26.4679,-82.0631,1.96,28.73,1111122 
SCCF RECON,ioos:station:SCCF:11:1,2016-08-10T13:00:00Z,26.4679,-82.0631,1.965,26.94,1111122 
SCCF RECON,ioos:station:SCCF:11:1,2016-08-10T14:00:00Z,26.4679,-82.0631,1.97,26.93,1111122 
SCCF RECON,ioos:station:SCCF:11:1,2016-08-10T15:00:00Z,26.4679,-82.0631,1.977,26.89,1111122 
SCCF RECON,ioos:station:SCCF:11:1,2016-08-10T16:00:00Z,26.4679,-82.0631,1.98,26.99,1111122 
SCCF RECON,ioos:station:SCCF:11:1,2016-08-10T17:00:00Z,26.4679,-82.0631,1.98,26.81,1111122 
SCCF RECON,ioos:station:SCCF:11:1,2016-08-10T18:00:00Z,26.4679,-82.0631,1.99,26.76,1111122 
SCCF RECON,ioos:station:SCCF:11:1,2016-08-10T19:00:00Z,26.4679,-82.0631,1.972,26.95,1111122 
SCCF RECON,ioos:station:SCCF:11:1,2016-08-10T20:00:00Z,26.4679,-82.0631,1.981,27.06,1111122 
SCCF RECON,ioos:station:SCCF:11:1,2016-08-10T21:00:00Z,26.4679,-82.0631,1.99,26.99,1111122 
SCCF RECON,ioos:station:SCCF:11:1,2016-08-10T22:00:00Z,26.4679,-82.0631,1.99,26.76,1111122 
SCCF RECON,ioos:station:SCCF:11:1,2016-08-10T23:00:00Z,26.4679,-82.0631,1.98,26.92,1111122 
SCCF RECON,ioos:station:SCCF:11:1,2016-08-11T00:00:00Z,26.4679,-82.0631,1.99,27.01,1111122 
SCCF RECON,ioos:station:SCCF:11:1,2016-08-11T01:00:00Z,26.4679,-82.0631,1.971,26.78,1111122 
SCCF RECON,ioos:station:SCCF:11:1,2016-08-11T02:00:00Z,26.4679,-82.0631,1.969,26.83,1111122 
SCCF RECON,ioos:station:SCCF:11:1,2016-08-11T03:00:00Z,26.4679,-82.0631,1.95,26.9,1111122 
SCCF RECON,ioos:station:SCCF:11:1,2016-08-11T04:00:00Z,26.4679,-82.0631,1.93,26.86,1111122 
SCCF RECON,ioos:station:SCCF:11:1,2016-08-11T05:00:00Z,26.4679,-82.0631,1.91,26.78,1111122 
SCCF RECON,ioos:station:SCCF:11:1,2016-08-11T06:00:00Z,26.4679,-82.0631,1.87,26.69,1111122 
SCCF RECON,ioos:station:SCCF:11:1,2016-08-11T07:00:00Z,26.4679,-82.0631,1.84,26.69,1111122 
SCCF RECON,ioos:station:SCCF:11:1,2016-08-11T08:00:00Z,26.4679,-82.0631,1.836,26.71,1111122 
SCCF RECON,ioos:station:SCCF:11:1,2016-08-11T09:00:00Z,26.4679,-82.0631,1.833,26.74,1111122 
SCCF RECON,ioos:station:SCCF:11:1,2016-08-11T10:00:00Z,26.4679,-82.0631,1.832,25.98,1111122 
SCCF RECON,ioos:station:SCCF:11:1,2016-08-11T11:00:00Z,26.4679,-82.0631,1.85,25.66,1111122 
SCCF RECON,ioos:station:SCCF:11:1,2016-08-11T12:00:00Z,26.4679,-82.0631,1.86,26.29,1111122 
SCCF RECON,ioos:station:SCCF:11:1,2016-08-11T13:00:00Z,26.4679,-82.0631,1.87,26.19,1111122 
SCCF RECON,ioos:station:SCCF:11:1,2016-08-11T14:00:00Z,26.4679,-82.0631,1.88,26.23,1111122 
SCCF RECON,ioos:station:SCCF:11:1,2016-08-11T15:00:00Z,26.4679,-82.0631,1.88,26.35,1111122 
SCCF RECON,ioos:station:SCCF:11:1,2016-08-11T16:00:00Z,26.4679,-82.0631,1.9,26.5,1111122 
SCCF RECON,ioos:station:SCCF:11:1,2016-08-11T17:00:00Z,26.4679,-82.0631,1.911,26.53,1111122 
SCCF RECON,ioos:station:SCCF:11:1,2016-08-11T18:00:00Z,26.4679,-82.0631,1.95,26.45,1111122 